| time (UTC) | temp F | wind direction | speed knots | gust knots | rain 1hr in | rain 24hr in | rain mn in | humidity % | barometer mb |
| 20260906230436 | 97 | 86 | 6.1 | 7.0 | 0.00 | 0.00 | 0.00 | 37 | 1012.4 |
| 20260906225436 | 98 | 140 | 6.1 | 7.0 | 0.00 | 0.00 | 0.00 | 36 | 1012.3 |
| 20260906224435 | 97 | 162 | 7.0 | 8.7 | 0.00 | 0.00 | 0.00 | 36 | 1012.5 |
| 20260906223437 | 97 | 148 | 5.2 | 5.2 | 0.00 | 0.00 | 0.00 | 37 | 1012.6 |
| 20260906222517 | 98 | 171 | 5.2 | 6.1 | 0.00 | 0.00 | 0.00 | 35 | 1012.9 |
| 20260906221437 | 97 | 152 | 7.0 | 7.8 | 0.00 | 0.00 | 0.00 | 37 | 1012.6 |
| 20260906220457 | 98 | 88 | 7.8 | 9.6 | 0.00 | 0.00 | 0.00 | 36 | 1012.5 |
| 20260906215437 | 97 | 117 | 9.6 | 12.2 | 0.00 | 0.00 | 0.00 | 36 | 1012.4 |
| 20260906214437 | 97 | 189 | 6.1 | 7.8 | 0.00 | 0.00 | 0.00 | 37 | 1012.4 |
| 20260906213437 | 97 | 130 | 12.2 | 13.9 | 0.00 | 0.00 | 0.00 | 37 | 1012.5 |
| 20260906212437 | 98 | 116 | 3.5 | 3.5 | 0.00 | 0.00 | 0.00 | 36 | 1013.0 |
| 20260906211437 | 97 | 169 | 3.5 | 5.2 | 0.00 | 0.00 | 0.00 | 38 | 1013.0 |
| 20260906210436 | 97 | 164 | 8.7 | 9.6 | 0.00 | 0.00 | 0.00 | 38 | 1013.1 |
| 20260906205437 | 97 | 188 | 3.5 | 5.2 | 0.00 | 0.00 | 0.00 | 38 | 1013.4 |
| 20260906204437 | 98 | 144 | 4.3 | 5.2 | 0.00 | 0.00 | 0.00 | 38 | 1013.3 |
| 20260906203438 | 96 | 113 | 6.1 | 7.0 | 0.00 | 0.00 | 0.00 | 38 | 1013.5 |
| 20260906202436 | 96 | 167 | 5.2 | 6.1 | 0.00 | 0.00 | 0.00 | 39 | 1013.9 |
| 20260906201436 | 96 | 141 | 2.6 | 3.5 | 0.00 | 0.00 | 0.00 | 40 | 1014.0 |
| 20260906200436 | 96 | 82 | 7.8 | 7.8 | 0.00 | 0.00 | 0.00 | 39 | 1014.0 |
| 20260906195437 | 96 | 115 | 6.1 | 7.0 | 0.00 | 0.00 | 0.00 | 38 | 1014.0 |
| 20260906194436 | 95 | 76 | 5.2 | 7.8 | 0.00 | 0.00 | 0.00 | 40 | 1014.1 |
| 20260906193437 | 96 | 132 | 7.0 | 8.7 | 0.00 | 0.00 | 0.00 | 39 | 1014.2 |
| 20260906192437 | 96 | 84 | 6.1 | 7.8 | 0.00 | 0.00 | 0.00 | 39 | 1014.2 |
| 20260906191437 | 98 | 152 | 7.8 | 12.2 | 0.00 | 0.00 | 0.00 | 38 | 1014.6 |
| 20260906190457 | 95 | 83 | 3.5 | 3.5 | 0.00 | 0.00 | 0.00 | 40 | 1014.5 |
| 20260906185436 | 97 | 197 | 3.5 | 5.2 | 0.00 | 0.00 | 0.00 | 39 | 1014.7 |
| 20260906184439 | 96 | 90 | 4.3 | 5.2 | 0.00 | 0.00 | 0.00 | 41 | 1014.9 |
| 20260906183436 | 95 | 188 | 4.3 | 5.2 | 0.00 | 0.00 | 0.00 | 44 | 1014.9 |
| 20260906182457 | 95 | 197 | 1.7 | 2.6 | 0.00 | 0.00 | 0.00 | 43 | 1015.0 |
| 20260906181437 | 94 | 194 | 2.6 | 2.6 | 0.00 | 0.00 | 0.00 | 45 | 1015.2 |
| 20260906180457 | 94 | 171 | 3.5 | 5.2 | 0.00 | 0.00 | 0.00 | 46 | 1015.2 |
| 20260906175436 | 93 | 88 | 7.8 | 8.7 | 0.00 | 0.00 | 0.00 | 46 | 1015.6 |
| 20260906174436 | 93 | 132 | 7.0 | 8.7 | 0.00 | 0.00 | 0.00 | 46 | 1015.5 |
| 20260906173457 | 93 | 150 | 7.8 | 7.8 | 0.00 | 0.00 | 0.00 | 46 | 1015.7 |
| 20260906172438 | 93 | 189 | 2.6 | 3.5 | 0.00 | 0.00 | 0.00 | 48 | 1015.9 |
| 20260906171437 | 93 | 120 | 2.6 | 3.5 | 0.00 | 0.00 | 0.00 | 49 | 1016.2 |
| 20260906170437 | 94 | 142 | 3.5 | 3.5 | 0.00 | 0.00 | 0.00 | 47 | 1016.1 |
| 20260906165437 | 94 | 144 | 5.2 | 7.0 | 0.00 | 0.00 | 0.00 | 48 | 1016.2 |
| 20260906164437 | 92 | 130 | 3.5 | 5.2 | 0.00 | 0.00 | 0.00 | 51 | 1016.2 |
| 20260906163436 | 91 | 90 | 7.0 | 7.8 | 0.00 | 0.00 | 0.00 | 55 | 1016.4 |
| 20260906162437 | 91 | 218 | 4.3 | 7.0 | 0.00 | 0.00 | 0.00 | 53 | 1016.3 |
| 20260906161436 | 91 | 159 | 7.8 | 7.8 | 0.00 | 0.00 | 0.00 | 51 | 1016.1 |
| 20260906160436 | 89 | 163 | 5.2 | 6.1 | 0.00 | 0.00 | 0.00 | 55 | 1016.0 |
| 20260906155436 | 89 | 114 | 5.2 | 6.1 | 0.00 | 0.00 | 0.00 | 57 | 1016.1 |
| 20260906154436 | 90 | 67 | 3.5 | 3.5 | 0.00 | 0.00 | 0.00 | 61 | 1016.1 |
| 20260906153436 | 89 | 150 | 1.7 | 1.7 | 0.00 | 0.00 | 0.00 | 63 | 1016.0 |
| 20260906152436 | 87 | 180 | 1.7 | 2.6 | 0.00 | 0.00 | 0.00 | 67 | 1016.1 |
| 20260906151457 | 87 | 123 | 1.7 | 2.6 | 0.00 | 0.00 | 0.00 | 69 | 1016.0 |
| 20260906150436 | 86 | 132 | 3.5 | 3.5 | 0.00 | 0.00 | 0.00 | 71 | 1015.9 |
| 20260906145436 | 86 | 112 | 3.5 | 3.5 | 0.00 | 0.00 | 0.00 | 73 | 1015.9 |
| 20260906144436 | 86 | 86 | 2.6 | 2.6 | 0.00 | 0.00 | 0.00 | 72 | 1016.2 |
| 20260906143438 | 84 | 104 | 1.7 | 1.7 | 0.00 | 0.00 | 0.00 | 75 | 1015.9 |
| 20260906142437 | 85 | 80 | 0.9 | 1.7 | 0.00 | 0.00 | 0.00 | 75 | 1016.0 |
| 20260906141458 | 83 | 143 | 0.9 | 0.9 | 0.00 | 0.00 | 0.00 | 79 | 1016.0 |
| 20260906140437 | 82 | 82 | 1.7 | 2.6 | 0.00 | 0.00 | 0.00 | 81 | 1016.0 |
| 20260906135437 | 82 | 94 | 2.6 | 2.6 | 0.00 | 0.00 | 0.00 | 82 | 1015.8 |
| 20260906134457 | 81 | 132 | 1.7 | 1.7 | 0.00 | 0.00 | 0.00 | 83 | 1015.9 |
| 20260906133436 | 80 | 114 | 2.6 | 2.6 | 0.00 | 0.00 | 0.00 | 84 | 1015.7 |
| 20260906132438 | 80 | 83 | 0.9 | 1.7 | 0.00 | 0.00 | 0.00 | 84 | 1015.9 |
| 20260906131436 | 79 | 88 | 0.0 | 0.0 | 0.00 | 0.00 | 0.00 | 87 | 1015.9 |
| 20260906130436 | 78 | 111 | 0.9 | 0.9 | 0.00 | 0.00 | 0.00 | 88 | 1015.9 |
| 20260906125436 | 78 | 136 | 0.9 | 0.9 | 0.00 | 0.00 | 0.00 | 88 | 1015.8 |
| 20260906124456 | 77 | 137 | 0.0 | 0.0 | 0.00 | 0.00 | 0.00 | 90 | 1015.6 |
| 20260906123436 | 76 | 137 | 0.9 | 0.9 | 0.00 | 0.00 | 0.00 | 92 | 1015.5 |
| 20260906122437 | 75 | 174 | 0.9 | 0.9 | 0.00 | 0.00 | 0.00 | 92 | 1015.5 |
| 20260906121437 | 75 | 169 | 0.0 | 0.0 | 0.00 | 0.00 | 0.00 | 93 | 1015.4 |
| 20260906120436 | 76 | 169 | 0.0 | 0.0 | 0.00 | 0.00 | 0.00 | 91 | 1015.3 |
| 20260906115437 | 76 | 170 | 0.9 | 0.9 | 0.00 | 0.00 | 0.00 | 91 | 1015.1 |
| 20260906114517 | 76 | 172 | 0.9 | 0.9 | 0.00 | 0.00 | 0.00 | 90 | 1014.9 |
| 20260906113437 | 77 | 172 | 0.0 | 0.0 | 0.00 | 0.00 | 0.00 | 89 | 1015.1 |
| 20260906112457 | 77 | 172 | 0.9 | 0.9 | 0.00 | 0.00 | 0.00 | 89 | 1015.0 |
| 20260906111437 | 77 | 172 | 1.7 | 1.7 | 0.00 | 0.00 | 0.00 | 88 | 1015.0 |
| 20260906110437 | 77 | 174 | 1.7 | 2.6 | 0.00 | 0.00 | 0.00 | 88 | 1015.2 |
| 20260906105437 | 77 | 189 | 3.5 | 3.5 | 0.00 | 0.00 | 0.00 | 88 | 1014.9 |
| 20260906104437 | 77 | 156 | 1.7 | 1.7 | 0.00 | 0.00 | 0.00 | 87 | 1014.7 |
| 20260906103438 | 77 | 152 | 1.7 | 1.7 | 0.00 | 0.00 | 0.00 | 88 | 1014.7 |
| 20260906102437 | 77 | 162 | 1.7 | 1.7 | 0.00 | 0.00 | 0.00 | 87 | 1014.7 |
| 20260906101437 | 78 | 118 | 1.7 | 1.7 | 0.00 | 0.00 | 0.00 | 88 | 1014.8 |
| 20260906100437 | 77 | 119 | 0.9 | 0.9 | 0.00 | 0.00 | 0.00 | 89 | 1014.8 |
| 20260906095437 | 77 | 0.0 | 0.0 | 0.00 | 0.00 | 0.00 | 88 | 1014.6 | |
| 20260906094436 | 77 | 119 | 0.0 | 0.0 | 0.00 | 0.00 | 0.00 | 88 | 1014.4 |
| 20260906093437 | 78 | 119 | 0.9 | 0.9 | 0.00 | 0.00 | 0.00 | 86 | 1014.3 |
| 20260906092437 | 78 | 119 | 0.0 | 0.9 | 0.00 | 0.00 | 0.00 | 86 | 1014.3 |
| 20260906091436 | 78 | 119 | 0.9 | 0.9 | 0.00 | 0.00 | 0.00 | 86 | 1014.2 |
| 20260906090437 | 78 | 125 | 1.7 | 1.7 | 0.00 | 0.00 | 0.00 | 86 | 1014.1 |
| 20260906085437 | 78 | 161 | 1.7 | 1.7 | 0.00 | 0.00 | 0.00 | 85 | 1014.1 |
| 20260906084437 | 78 | 151 | 1.7 | 1.7 | 0.00 | 0.00 | 0.00 | 84 | 1014.1 |
| 20260906083437 | 78 | 141 | 0.9 | 0.9 | 0.00 | 0.00 | 0.00 | 84 | 1014.0 |
| 20260906082437 | 78 | 149 | 1.7 | 2.6 | 0.00 | 0.00 | 0.00 | 83 | 1013.9 |
| 20260906081437 | 78 | 133 | 3.5 | 3.5 | 0.00 | 0.00 | 0.00 | 83 | 1013.9 |
| 20260906080436 | 79 | 165 | 1.7 | 1.7 | 0.00 | 0.00 | 0.00 | 82 | 1014.1 |
| 20260906075437 | 79 | 167 | 1.7 | 1.7 | 0.00 | 0.00 | 0.00 | 81 | 1014.1 |
| 20260906074437 | 79 | 147 | 2.6 | 2.6 | 0.00 | 0.00 | 0.00 | 80 | 1014.3 |
| 20260906073438 | 80 | 170 | 2.6 | 3.5 | 0.00 | 0.00 | 0.00 | 79 | 1014.0 |
| 20260906072437 | 80 | 125 | 1.7 | 1.7 | 0.00 | 0.00 | 0.00 | 78 | 1014.0 |
| 20260906071457 | 80 | 0.0 | 0.0 | 0.00 | 0.00 | 0.00 | 78 | 1014.1 | |
| 20260906070437 | 80 | 182 | 0.9 | 0.9 | 0.00 | 0.00 | 0.00 | 77 | 1014.4 |
| 20260906065437 | 81 | 177 | 1.7 | 1.7 | 0.00 | 0.00 | 0.00 | 76 | 1014.5 |
| 20260906064436 | 81 | 190 | 2.6 | 3.5 | 0.00 | 0.00 | 0.00 | 75 | 1014.3 |
| 20260906063458 | 81 | 184 | 2.6 | 3.5 | 0.00 | 0.00 | 0.00 | 74 | 1014.5 |
| 20260906062518 | 81 | 166 | 1.7 | 2.6 | 0.00 | 0.00 | 0.00 | 74 | 1014.1 |
| 20260906061437 | 81 | 155 | 1.7 | 1.7 | 0.00 | 0.00 | 0.00 | 74 | 1014.3 |
| 20260906060437 | 81 | 128 | 3.5 | 3.5 | 0.00 | 0.00 | 0.00 | 73 | 1014.4 |
| 20260906055437 | 81 | 95 | 1.7 | 2.6 | 0.00 | 0.00 | 0.00 | 74 | 1014.4 |
| 20260906054437 | 81 | 133 | 0.9 | 0.9 | 0.00 | 0.00 | 0.00 | 73 | 1014.5 |
| 20260906053437 | 82 | 176 | 0.0 | 0.0 | 0.00 | 0.00 | 0.00 | 70 | 1014.5 |
| 20260906052457 | 82 | 141 | 3.5 | 3.5 | 0.00 | 0.00 | 0.00 | 70 | 1014.3 |
| 20260906051437 | 82 | 151 | 3.5 | 3.5 | 0.00 | 0.00 | 0.00 | 70 | 1014.5 |
| 20260906050437 | 83 | 178 | 0.9 | 0.9 | 0.00 | 0.00 | 0.00 | 70 | 1014.0 |
| 20260906045437 | 83 | 176 | 1.7 | 1.7 | 0.00 | 0.00 | 0.00 | 70 | 1014.0 |
| 20260906044436 | 83 | 140 | 2.6 | 3.5 | 0.00 | 0.00 | 0.00 | 70 | 1014.3 |
| 20260906043457 | 83 | 172 | 1.7 | 2.6 | 0.00 | 0.00 | 0.00 | 70 | 1014.5 |
| 20260906042437 | 83 | 146 | 0.9 | 0.9 | 0.00 | 0.00 | 0.00 | 69 | 1014.4 |
| 20260906041437 | 84 | 172 | 2.6 | 3.5 | 0.00 | 0.00 | 0.00 | 68 | 1014.5 |
| 20260906040437 | 84 | 159 | 1.7 | 1.7 | 0.00 | 0.00 | 0.00 | 68 | 1014.4 |
| 20260906035438 | 84 | 120 | 2.6 | 2.6 | 0.00 | 0.00 | 0.00 | 67 | 1014.4 |
| 20260906034437 | 84 | 174 | 2.6 | 2.6 | 0.00 | 0.00 | 0.00 | 66 | 1014.3 |
| 20260906033437 | 85 | 159 | 3.5 | 3.5 | 0.00 | 0.00 | 0.00 | 65 | 1014.3 |
| 20260906032457 | 85 | 198 | 2.6 | 2.6 | 0.00 | 0.00 | 0.00 | 64 | 1014.4 |
| 20260906031436 | 85 | 169 | 0.9 | 0.9 | 0.00 | 0.00 | 0.00 | 63 | 1014.4 |
| 20260906030436 | 86 | 153 | 1.7 | 1.7 | 0.00 | 0.00 | 0.00 | 62 | 1014.2 |
| 20260906025436 | 86 | 159 | 3.5 | 5.2 | 0.00 | 0.00 | 0.00 | 61 | 1014.5 |
| 20260906024437 | 86 | 171 | 1.7 | 3.5 | 0.00 | 0.00 | 0.00 | 60 | 1014.1 |
| 20260906023437 | 86 | 162 | 3.5 | 3.5 | 0.00 | 0.00 | 0.00 | 60 | 1013.9 |
| 20260906022437 | 87 | 168 | 3.5 | 3.5 | 0.00 | 0.00 | 0.00 | 58 | 1013.9 |
| 20260906021457 | 87 | 181 | 4.3 | 5.2 | 0.00 | 0.00 | 0.00 | 58 | 1013.7 |
| 20260906020436 | 87 | 147 | 3.5 | 5.2 | 0.00 | 0.00 | 0.00 | 57 | 1013.7 |
| 20260906015437 | 87 | 184 | 5.2 | 7.0 | 0.00 | 0.00 | 0.00 | 56 | 1013.6 |
| 20260906014436 | 88 | 98 | 6.1 | 6.1 | 0.00 | 0.00 | 0.00 | 55 | 1013.3 |
| 20260906013516 | 88 | 134 | 4.3 | 7.0 | 0.00 | 0.00 | 0.00 | 55 | 1013.4 |
| 20260906012437 | 89 | 195 | 7.8 | 8.7 | 0.00 | 0.00 | 0.00 | 55 | 1013.3 |
| 20260906011437 | 89 | 166 | 5.2 | 7.0 | 0.00 | 0.00 | 0.00 | 53 | 1013.0 |
| 20260906010457 | 90 | 137 | 8.7 | 13.0 | 0.00 | 0.00 | 0.00 | 52 | 1013.0 |
| 20260906005436 | 92 | 145 | 8.7 | 9.6 | 0.00 | 0.00 | 0.00 | 49 | 1012.5 |
| 20260906004437 | 93 | 138 | 8.7 | 11.3 | 0.00 | 0.00 | 0.00 | 47 | 1012.4 |
| 20260906003437 | 95 | 172 | 5.2 | 5.2 | 0.00 | 0.00 | 0.00 | 42 | 1012.3 |
| 20260906002437 | 95 | 158 | 1.7 | 1.7 | 0.00 | 0.00 | 0.00 | 40 | 1012.3 |
| 20260906001437 | 96 | 134 | 2.6 | 2.6 | 0.00 | 0.00 | 0.00 | 39 | 1012.4 |
| 20260906000437 | 97 | 174 | 1.7 | 2.6 | 0.00 | 0.00 | 0.00 | 37 | 1012.3 |
| 20260905235436 | 98 | 169 | 2.6 | 2.6 | 0.00 | 0.00 | 0.00 | 37 | 1012.3 |
| 20260905234438 | 98 | 184 | 2.6 | 2.6 | 0.00 | 0.00 | 0.00 | 37 | 1012.0 |
| 20260905233436 | 98 | 162 | 1.7 | 2.6 | 0.00 | 0.00 | 0.00 | 36 | 1012.3 |
| 20260905232436 | 96 | 109 | 3.5 | 3.5 | 0.00 | 0.00 | 0.00 | 38 | 1012.1 |
| 20260905231436 | 97 | 61 | 3.5 | 5.2 | 0.00 | 0.00 | 0.00 | 38 | 1012.2 |